TimeEDT,TemperatureF,Dew PointF,Humidity,Sea Level PressureIn,VisibilityMPH,Wind Direction,Wind SpeedMPH,Gust SpeedMPH,PrecipitationIn,Events,Conditions,WindDirDegrees,DateUTC
12:58 AM,64.6,53.1,66,29.96,10.0,NW,4.6,-,N/A,,Clear,310,2013-06-14 04:58:00
1:58 AM,60.3,52.7,76,29.97,10.0,WNW,6.9,-,N/A,,Clear,300,2013-06-14 05:58:00
2:58 AM,60.1,53.2,78,29.95,10.0,NNW,6.9,-,N/A,,Clear,330,2013-06-14 06:58:00
3:58 AM,59.5,52.3,77,29.95,10.0,NW,4.6,-,N/A,,Clear,310,2013-06-14 07:58:00
4:58 AM,54.3,51.3,89,29.96,10.0,WNW,4.6,-,N/A,,Clear,290,2013-06-14 08:58:00
5:58 AM,54.7,52.2,91,29.99,10.0,WNW,2.3,-,N/A,,Clear,300,2013-06-14 09:58:00
6:58 AM,55.8,52.9,90,30.00,10.0,NNW,2.3,-,N/A,,Clear,340,2013-06-14 10:58:00
7:58 AM,60.8,55.2,82,30.01,10.0,NW,6.9,-,N/A,,Clear,310,2013-06-14 11:58:00
8:58 AM,64.0,54.9,72,30.04,10.0,North,6.9,-,N/A,,Clear,360,2013-06-14 12:58:00
9:58 AM,66.7,56.5,70,30.04,10.0,Variable,1.2,-,N/A,,Clear,0,2013-06-14 13:58:00
10:58 AM,70.0,57.4,64,30.04,10.0,SW,3.5,-,N/A,,Clear,220,2013-06-14 14:58:00
11:58 AM,73.0,56.7,56,30.06,10.0,WNW,6.9,-,N/A,,Clear,300,2013-06-14 15:58:00
12:17 PM,73.4,55.4,53,30.06,10.0,North,3.5,-,N/A,Rain,Light Rain,360,2013-06-14 16:17:00
12:27 PM,75.2,53.6,47,30.05,10.0,Variable,1.2,-,N/A,,Clear,0,2013-06-14 16:27:00
12:58 PM,75.9,53.4,45,30.05,8.0,North,4.6,-,0.00,,Clear,360,2013-06-14 16:58:00
1:58 PM,77.5,49.3,37,30.03,10.0,Calm,Calm,-,N/A,,Clear,0,2013-06-14 17:58:00
2:58 PM,78.6,53.4,42,30.03,10.0,North,4.6,-,N/A,,Clear,350,2013-06-14 18:58:00
3:58 PM,80.8,54.3,40,30.03,10.0,Variable,3.5,-,N/A,,Clear,0,2013-06-14 19:58:00
4:58 PM,80.6,54.9,41,30.02,10.0,ENE,8.1,-,N/A,,Clear,60,2013-06-14 20:58:00
5:58 PM,81.1,57.2,44,30.03,10.0,Variable,5.8,-,N/A,,Partly Cloudy,0,2013-06-14 21:58:00
6:58 PM,79.9,55.8,43,30.02,10.0,North,3.5,-,N/A,,Clear,10,2013-06-14 22:58:00
7:58 PM,79.0,56.7,46,30.01,10.0,NE,4.6,-,N/A,,Clear,40,2013-06-14 23:58:00
8:00 PM,78.8,55.4,44,30.01,10.0,NNE,2.3,-,N/A,,Clear,30,2013-06-15 00:00:00
8:58 PM,72.0,61.3,69,30.00,10.0,North,2.3,-,N/A,,Mostly Cloudy,10,2013-06-15 00:58:00
9:58 PM,68.0,61.0,78,30.01,10.0,NNE,2.3,-,N/A,,Clear,30,2013-06-15 01:58:00
10:58 PM,66.2,59.2,78,30.03,10.0,NE,2.3,-,N/A,,Clear,50,2013-06-15 02:58:00
11:58 PM,64.9,59.4,82,30.03,10.0,ESE,2.3,-,N/A,,Clear,110,2013-06-15 03:58:00
11:59 PM,64.4,59.0,83,30.03,10.0,ESE,2.3,-,N/A,Rain,Light Rain,120,2013-06-15 03:59:00